SL-16 DEB, 22417

Orbit data source: Space-Track

SL-16 DEB, 22417 is space debris in LEO originally from a launch on Fri, 25 Dec 1992 UTC launched from the Tyuratam Missile And Space Complex (TTMTR). Debris objects in space refer to the collection of defunct objects orbiting the Earth. Examples of debris include non-operational satellites, rocket bodies, and fragments generated from explosions, collisions, or faulty payload assembly.

Loading next visibility...
Identifier
22417, 1992-093DJ
Orbit
LEO
Country
Flag of CISCIS
Related business
Manufacturer
Unknown
Mission
Spacecraft
Bus & Motor
Unknown
Mass
Unknown
Launch date (UTC)
1992-12-25 (33 years ago)
Launch vehicle
Unknown
Launch site
Tyuratam Missile And Space Complex (TTMTR)
Object type
Payload
Rocket body
Debris
Shape & HBR
Unknown shape, 0.9 m
Radar Cross Section
Medium (>0.1 m² and <1 m²)

Expand to show TLE details & history
Last TLE update: 13 hours ago

TLE from 13 hours ago
0 SL-16 DEB
1 22417U 92093DJ  25349.94434332  .00000046  00000-0  61792-4 0  9993
2 22417  71.1846  45.4217 0086457   2.2690 170.4901 13.97635658680039
Epoch: 2025-12-15T22:39Z
TLE epoch observation values (Epoch: 2025-12-15T22:39:51.262Z)
Latitude
6.63364°
Longitude
158.36325°
Altitude
965.871 km
Speed
7.338 km/s
True Right ascension
14h 52m 38s
True Declination
6° 35' 43"
Sunlit
Object was in daylight at epoch
Visualization orbit readout
Latitude
Unknown
Longitude
Unknown
Altitude
Unknown
Speed
Unknown
Apparent Right ascension
Unknown
Apparent Declination
Unknown
Sunlit
N/A
Visualization observer readout
Local Sidereal Time
10:12:40
Azimuth
Unknown
Elevation
Unknown
Doppler factor
Unknown
Orbital elements
Apogee altitude
962.842 km
Perigee altitude
836.994 km
Semi-major axis
7,278.055 km
Eccentricity
0.00865
Inclination
71.1846°
RAAN
45.4217°
Arg. of periapsis
2.269°
True anomaly
170.65206°
Mean anomaly
170.4901°
Eccentric anomaly
170.57125°
Mean motion
3.49559 °/min
Orbital period
102.99 mins
BSTAR
0.000061792
Loading maneuver chart data...
Computing Atmospheric mass density...
Loading historical data...
Loading historical data...
Loading historical data...
Loading historical data...
Loading historical data...
Loading historical data...
Loading historical data...

Documentation

Showing up to 5 results
|